Regional Weather Roundup
Issued by NWS Cleveland, OH

Home | Current Version | Previous Version | Text Only | Print | Product List | Glossary Off
Versions: 1 2 3 4 5 6 7 8 9 10 11 12 13 14 15 16 17 18 19 20 21 22 23 24 25 26 27 28 29 30 31 32 33 34 35 36 37 38 39 40 41 42 43 44 45 46 47 48 49 50

000
ASUS41 KCLE 291610
RWRCLE
OHIO REGIONAL WEATHER ROUNDUP
NATIONAL WEATHER SERVICE WILMINGTON, OH
1200 PM EDT TUE JUL 29 2014

NOTE: "FAIR" INDICATES FEW OR NO CLOUDS BELOW 12,000 FEET WITH NO
SIGNIFICANT WEATHER AND/OR OBSTRUCTIONS TO VISIBILITY.

OHZ001>008-015>018-024>027-034-035-043-044-291700-
   NORTHWEST OHIO

CITY           SKY/WX    TMP DP  RH WIND       PRES   REMARKS
DEFIANCE       PTSUNNY   69  51  52 NW7       30.05S
FINDLAY        MOSUNNY   68  49  50 MISG      30.05S
TOLEDO EXPRESS SUNNY     68  48  48 W8        30.03F
TOLEDO METCALF MOSUNNY   68  46  45 W9        30.04S
LIMA           MOSUNNY   65  49  56 VRB3      30.06S
$$

OHZ009>014-019>023-028>033-038-089-291700-
   NORTHEAST OHIO

CITY           SKY/WX    TMP DP  RH WIND       PRES   REMARKS
CLE-HOPKINS    PTSUNNY   65  47  52 NW6       30.04R
CLE-LAKEFRONT  MOSUNNY   66  48  52 W9        30.01R
CUY CO. ARPT   PTSUNNY   63  50  63 N9        30.03R
LORAIN-ELYRIA  PTSUNNY   68  49  50 NW12G18   30.04R
ASHTABULA      CLOUDY    62  51  67 NW6       30.01S
AKRON-CANTON   PTSUNNY   65  49  56 W7        30.03S
WOOSTER        CLOUDY    64  48  56 NW7       30.05R
MANSFIELD      PTSUNNY   64  47  53 VRB3      30.06R
YOUNGSTOWN     CLOUDY    63  51  65 NW8       30.01R
$$

OHZ042-051>053-060>062-070>072-077>081-291700-
  SOUTHWEST OHIO

CITY           SKY/WX    TMP DP  RH WIND       PRES   REMARKS
CINC-COVINGTON MOSUNNY   67  48  50 N12G17    30.08S
CINC-LUNKEN    PTSUNNY   68  51  54 N12       30.09R
HAMILTON       SUNNY     67  49  52 N7        30.09R
DAYTON         MOSUNNY   66  48  52 VRB5      30.09R
WRIGHT-PAT AFB SUNNY     65  49  56 N7        30.08R
DAYTON GENERAL SUNNY     66  49  54 N8        30.07S
WILMINGTON     MOSUNNY   65  52  62 N9        30.07S
$$

OHZ036-037-039>041-045>050-054>059-063>069-073>076-082>088-291700-
  CENTRAL AND SOUTHEAST OHIO

CITY           SKY/WX    TMP DP  RH WIND       PRES   REMARKS
COLUMBUS       CLOUDY    67  49  52 NW8       30.05R
OSU AIRPORT    PTSUNNY   63  50  62 VRB5      30.06R
BOLTON FIELD   PTSUNNY   64  54  68 NW8       30.06S
RICKENBACK AFB CLOUDY    66  48  52 NW8       30.05S
NEWARK         PTSUNNY   65  47  52 N6        30.05
MARION         PTSUNNY   64  47  53 N6        30.06S
LANCASTER      MOSUNNY   66  53  63 N7        30.06R
ZANESVILLE     PTSUNNY   63  47  55 NW6       30.05R
NEW PHILLY     CLOUDY    63  52  67 NW7       30.04R
$$


USA.gov is the U.S. government's official web portal to all federal, state and local government web resources and services.